Home   Weather   Pasadena   Past weeks

Flag for USA Past Weather in Pasadena, California, USA — Yesterday and Last 2 Weeks

Now
67 °F

Passing clouds.


Feels Like: 67 °F
Forecast: 67 / 84 °F
Wind: 6 mph from Southeast

Location: Bob Hope Airport

Current Time: Jul 25, 2017 at 6:03:52 am

Latest Report: Jul 25, 2017 at 5:30 am


Visibility: 10 mi

Pressure: 29.94 "Hg

Humidity: 85%

Dew Point: 62 °F

Location of PasadenaLocation

Past Weather in Pasadena — Graph

°F

Pasadena Temperature Yesterday

Maximum temperature yesterday: 84 °F (at 12:53 pm)
Minimum temperature yesterday: 67 °F (at 1:53 am)
Average temperature yesterday: 74 °F

High & Low Weather Summary for the Past Weeks

 TemperatureHumidityPressure
High93 °F (Jul 10, 1:53 pm)85% (Jul 14, 3:53 am)30.03 "Hg (Jul 14, 3:53 am)
Low65 °F (Jul 14, 3:53 am)24% (Jul 13, 2:53 pm)29.77 "Hg (Jul 23, 4:53 pm)
Average77 °F58%29.88 "Hg
* Reported Jul 10 3:53 am — Jul 25 3:53 am, Pasadena. Weather by CustomWeather, © 2017

Note: Actual official high and low records may vary slightly from our data, if they occured in-between our weather recording intervals... More about our weather records

Advertising

Pasadena Weather History for the Previous 24 Hours

Scroll right to see more
 ConditionsComfort  
Time TempWeatherWind HumidityBarometerVisibility
3:53 am
Tue, Jul 25
67 °FClear.No wind81%29.90 "Hg10 mi
2:53 am67 °FClear.3 mph85%29.91 "Hg10 mi
1:53 am67 °FClear.6 mph85%29.91 "Hg10 mi
12:53 am68 °FClear.6 mph82%29.91 "Hg10 mi
11:53 pm
Mon, Jul 24
69 °FClear.5 mph79%29.90 "Hg10 mi
10:53 pm72 °FClear.5 mph71%29.88 "Hg10 mi
9:53 pm75 °FClear.3 mph60%29.87 "Hg10 mi
8:53 pm74 °FClear.5 mph64%29.86 "Hg10 mi
7:53 pm75 °FSunny.7 mph60%29.85 "Hg10 mi
6:53 pm76 °FSunny.5 mph60%29.83 "Hg10 mi
5:53 pm76 °FSunny.10 mph60%29.83 "Hg10 mi
4:53 pm77 °FSunny.10 mph56%29.83 "Hg10 mi
3:53 pm78 °FSunny.9 mph56%29.83 "Hg10 mi
2:53 pm79 °FSunny.12 mph56%29.85 "Hg10 mi
1:53 pm83 °FSunny.9 mph48%29.85 "Hg10 mi
12:53 pm84 °FSunny.9 mph38%29.86 "Hg10 mi
12:30 pm83 °FSunny.7 mph41%29.91 "Hg10 mi
11:53 am81 °FSunny.10 mph41%29.88 "Hg10 mi
10:53 am79 °FSunny.14 mph44%29.90 "Hg10 mi
9:53 am76 °FSunny.9 mph58%29.90 "Hg10 mi
8:53 am73 °FSunny.No wind64%29.89 "Hg6 mi
7:53 am70 °FSunny.No wind73%29.88 "Hg6 mi
6:53 am67 °FSunny.3 mph81%29.88 "Hg10 mi
Weather by CustomWeather, © 2017

See weather overviewHow to use our weather pages